SCP
1 0 0 0 0 0 0 0 0 0 0 0 0 0 0 13 26 13 0 0 1 1 0 0 0 0 0 0 0 0 0 0 0 0 1 0 0 0 0 0 0 0 0
1 0 0 0 0 0 0 0 0 0 0 0 0 0 0 6 10 6 0 0 0 1 1 0 0 0 0 0 0 0 0 0 0 0 0 0 0 0 0 0 0 0 0
1 1 0 0 0 0 0 0 0 0 0 0 0 0 0 0 0 0 0 0 0 1 1 0 0 0 0 0 0 0 0 0 0 0 0 0 0 0 0 0 0 0 0
1 1 0 0 0 0 0 0 0 0 0 0 0 0 0 0 0 0 0 0 0 0 0 0 0 0 0 0 0 0 0 0 0 0 0 0 0 0 0 0 0 0 0
1 1 0 0 0 0 0 0 0 0 0 0 0 0 0 0 0 0 0 0 0 0 0 0 0 0 0 0 0 0 0 0 0 0 0 0 0 0 0 0 0 0 0
1 1 1 0 0 0 0 0 0 0 0 0 0 0 0 0 0 0 0 0 0 0 0 0 0 0 0 0 0 0 0 0 0 0 0 0 0 0 0 0 0 0 0
1 1 1 1 1 1 0 0 0 0 0 0 0 0 0 0 0 0 0 0 0 0 0 0 0 0 0 0 0 0 0 0 0 0 0 0 0 0 1 1 0 0 0
1 1 1 1 1 1 0 0 0 0 0 0 0 0 0 0 0 0 0 0 0 0 0 0 0 0 0 0 0 0 0 0 0 0 0 0 0 0 1 1 0 0 0
2 2 1 1 1 1 1 0 0 0 0 0 0 0 0 0 0 0 0 0 0 0 0 0 0 0 0 0 0 0 0 1 1 1 0 0 0 0 0 0 0 0 0
2 2 1 2 2 1 1 1 0 0 0 0 0 0 0 0 0 0 0 0 0 0 0 0 0 0 0 0 0 0 0 1 1 1 1 1 1 0 0 0 0 0 0
2 2 2 1 1 1 1 1 1 0 0 0 0 0 0 0 0 0 0 0 0 0 0 0 0 0 0 0 0 0 0 1 1 1 1 1 1 1 0 0 0 0 0
2 2 2 1 1 1 1 1 1 0 0 0 0 0 0 0 0 0 0 0 0 0 0 0 0 0 0 0 0 0 1 1 1 1 1 1 1 1 1 1 0 0 0
2 2 2 2 1 1 1 1 1 1 0 0 0 0 0 0 0 0 0 0 0 0 0 0 0 0 0 0 0 0 1 1 1 0 0 1 1 1 1 1 0 0 0
1 1 2 2 1 1 1 1 1 1 0 0 0 0 0 0 0 0 0 0 0 0 0 0 0 0 0 0 0 0 1 1 1 0 0 0 0 0 0 0 0 0 0
1 1 1 1 2 1 1 1 1 1 0 0 0 0 0 0 0 0 0 0 0 0 0 0 0 0 0 0 0 0 0 0 0 0 0 0 0 0 0 0 0 0 0
0 0 1 1 1 2 1 1 1 0 0 0 0 0 0 0 0 0 0 0 0 0 0 0 0 0 0 0 0 0 0 0 0 0 0 0 0 0 0 0 0 0 0
0 0 1 1 1 1 1 1 0 0 0 0 0 0 0 0 0 0 0 0 0 0 0 0 0 0 0 0 0 0 0 0 0 0 0 0 0 0 0 0 0 0 0
0 0 1 1 1 1 1 0 0 0 0 0 0 0 0 0 0 0 0 0 0 0 0 0 0 0 0 0 0 0 0 0 0 0 0 0 0 0 0 0 0 0 0
0 0 0 0 0 0 0 0 0 0 0 1 0 0 0 0 0 0 0 0 0 0 0 0 0 0 0 0 0 0 0 0 0 0 0 0 0 0 0 0 0 0 0
0 0 0 0 1 1 1 0 0 0 0 0 0 0 0 0 0 0 0 0 0 0 0 0 0 0 0 0 0 0 0 0 0 0 0 0 0 0 0 0 0 0 0
0 0 0 0 1 1 1 0 0 0 0 0 0 0 0 0 0 0 0 0 0 0 0 0 0 0 0 0 0 0 0 0 0 0 0 0 0 0 0 0 0 0 0
1 1 1 1 1 1 0 0 0 0 0 0 0 0 0 0 0 0 0 0 0 0 0 0 0 0 0 0 0 0 0 0 0 0 0 0 0 0 0 0 0 0 0
1 1 1 1 1 0 0 0 0 0 0 0 0 0 0 0 0 0 0 0 0 0 0 0 0 0 0 0 0 0 0 0 0 0 0 0 0 0 0 0 0 0 0
1 1 0 0 0 0 0 0 0 0 0 0 0 0 0 0 0 0 0 0 0 0 0 0 0 0 0 0 0 0 0 0 0 0 0 0 0 0 0 0 0 0 0
0 0 0 0 0 0 0 0 0 0 0 0 0 0 0 0 0 0 0 0 0 0 0 0 0 0 0 0 0 0 0 0 0 0 0 0 0 0 0 0 0 0 0
0 0 0 0 0 0 0 0 0 0 0 0 0 0 0 0 0 0 0 0 0 0 0 0 0 0 0 0 0 0 0 0 0 0 0 0 0 0 0 0 0 0 0
Wind_Speed
5 4 3 3 2 2 2 2 2 1 1 1 2 4 5 6 5 4 4 12 12 11 11 11 11 10 10 10 10 10 9 9 9 8 8 8 8 8 8 7 7 7 6
5 5 4 3 3 3 3 3 3 2 1 2 2 3 4 5 6 5 4 7 11 11 11 11 11 11 10 10 10 10 9 10 9 8 8 8 8 8 8 7 7 7 6
6 5 4 3 3 3 3 2 2 2 2 2 2 2 3 4 5 5 5 3 4 9 10 10 10 10 11 11 11 11 10 10 9 9 8 8 8 8 8 8 7 7 6
6 5 4 3 3 3 3 3 2 2 2 2 1 1 2 3 4 5 5 4 3 4 7 10 10 10 10 11 11 11 11 10 10 10 9 9 9 9 9 8 8 8 7
6 5 4 3 3 3 3 3 2 3 2 2 1 1 1 2 3 5 5 5 5 4 4 7 10 10 11 12 11 11 12 12 11 11 11 11 11 10 9 9 9 9 8
5 5 3 4 4 4 3 3 3 2 2 2 1 1 0 1 2 3 4 4 5 6 6 5 5 7 11 11 11 11 11 11 12 12 12 12 12 11 10 10 10 10 10
6 5 4 4 4 4 4 4 3 3 1 1 3 2 3 2 1 2 2 3 4 5 5 5 4 4 4 9 10 10 11 11 11 12 12 12 12 11 11 12 12 11 11
6 5 5 4 4 4 4 3 3 2 1 2 3 2 2 3 3 2 1 3 4 3 4 6 5 5 4 3 6 11 11 11 12 12 12 12 11 11 11 12 12 12 12
5 5 6 5 4 4 4 3 3 4 2 0 2 4 3 3 2 3 2 2 2 3 3 4 6 6 6 4 4 8 12 11 12 13 12 12 11 11 11 12 12 13 13
6 6 6 5 4 4 4 3 3 3 4 1 0 0 2 3 3 1 3 2 3 3 4 4 5 6 6 5 6 9 12 12 12 12 12 11 11 11 11 12 13 13 13
5 6 6 5 5 4 4 4 4 3 3 3 2 1 1 1 2 2 1 3 3 2 3 4 4 4 5 5 5 8 11 11 11 11 10 10 10 10 11 11 12 12 13
3 5 5 5 5 4 4 4 4 5 3 3 2 2 2 2 1 2 2 2 3 3 3 3 3 4 4 5 7 10 12 11 11 10 10 10 10 10 10 11 11 12 12
3 4 4 5 4 4 4 4 4 4 3 3 2 2 1 2 2 2 2 1 1 3 3 2 3 3 4 4 5 10 11 11 11 11 11 10 10 10 9 10 10 11 11
4 5 5 5 5 5 5 4 3 3 3 3 2 2 1 1 1 2 3 2 1 2 3 4 2 3 3 3 6 10 6 11 12 12 11 11 11 10 10 10 10 10 10
5 6 6 5 5 5 5 4 3 3 3 2 2 2 1 1 1 1 2 3 3 1 3 3 3 2 2 3 5 4 5 9 12 12 12 12 12 12 12 12 12 12 12
6 6 6 6 5 5 5 4 3 2 3 2 2 2 1 0 1 1 1 1 2 3 2 3 3 3 2 3 4 4 5 8 11 12 12 13 13 13 13 13 13 13 13
7 7 7 6 5 5 5 4 3 3 3 2 1 2 1 1 0 1 1 1 1 2 2 3 2 2 2 2 2 2 3 4 5 10 12 13 13 14 14 14 14 14 14
7 7 6 6 6 5 4 5 4 3 3 3 2 2 1 1 1 0 1 1 0 1 2 2 2 2 2 2 2 2 3 3 3 7 10 11 11 12 12 13 13 13 13
6 6 6 6 5 4 4 4 4 4 3 3 2 2 1 2 1 0 1 0 0 1 1 1 2 2 2 2 2 3 3 3 4 5 6 6 7 9 10 10 11 12 13
6 6 5 5 4 4 4 4 4 4 3 2 2 3 2 2 1 1 1 1 1 1 1 1 1 2 2 2 2 2 3 3 4 4 5 5 6 7 8 10 10 11 12
6 5 5 5 4 3 3 4 3 4 4 4 4 4 4 5 5 3 2 1 2 1 1 1 1 2 2 2 2 2 3 4 3 2 3 4 4 4 5 7 8 9 10
5 5 6 5 4 3 4 5 4 5 5 5 5 5 5 7 7 8 8 7 5 2 1 1 1 1 2 2 2 2 2 3 4 3 3 5 3 4 4 4 7 9 9
7 7 6 7 6 5 6 7 8 7 7 6 5 5 5 6 7 5 8 10 10 10 6 1 1 1 2 2 2 3 2 2 4 4 3 4 3 4 4 5 9 9 9
8 7 7 8 8 8 10 12 13 10 9 8 7 6 6 5 6 5 5 6 5 5 5 4 1 2 2 3 2 2 3 3 4 4 1 3 3 4 5 5 7 8 9
9 8 8 8 9 9 11 13 12 8 8 8 7 7 6 6 8 8 6 5 5 5 6 7 6 6 7 7 4 2 3 3 4 4 2 2 3 4 4 4 5 7 9
11 10 10 8 9 9 11 13 11 7 8 6 5 6 8 7 8 8 5 4 5 4 5 7 7 8 7 8 8 3 1 2 3 4 3 3 3 4 5 4 3 5 6
Wind_Direction
161 164 165 169 172 163 163 166 175 186 176 136 129 137 146 149 159 161 173 177 174 173 174 176 177 177 177 176 175 173 172 170 168 167 168 166 164 164 163 162 161 159 158
160 160 161 166 174 170 162 161 162 154 144 124 125 140 144 151 161 166 176 182 182 181 183 183 185 186 186 187 187 186 184 183 181 180 180 178 176 177 177 177 178 177 174
152 151 153 159 167 156 148 137 130 118 126 121 125 137 143 152 163 170 178 180 185 192 192 193 194 194 195 196 196 196 196 192 190 190 190 189 189 189 188 188 189 188 187
146 144 146 155 155 138 131 127 118 107 112 119 126 143 152 156 168 177 180 183 184 195 203 203 200 202 204 206 206 206 205 201 199 199 199 200 201 200 199 198 198 198 200
145 143 148 153 139 124 124 139 121 128 128 127 144 158 167 167 176 181 187 193 194 196 199 210 208 208 214 216 216 215 213 210 208 208 209 209 210 209 208 207 207 207 209
148 144 148 143 130 121 122 120 121 115 133 148 128 98 318 205 193 193 197 195 199 203 202 206 208 218 221 222 222 220 219 217 215 216 217 216 216 214 213 213 214 215 216
154 147 143 135 132 135 144 134 118 108 95 107 79 28 351 345 279 228 206 194 201 205 197 202 203 209 224 225 225 223 222 221 220 220 222 223 223 220 218 219 220 221 221
157 154 144 147 140 132 129 127 121 115 90 120 123 99 18 345 325 273 235 210 208 202 202 206 205 209 216 212 223 225 226 226 226 226 226 227 228 228 227 226 226 226 226
157 151 153 148 144 140 147 152 140 134 132 53 138 140 148 216 289 314 279 239 217 204 211 207 208 212 213 212 219 227 227 226 229 231 230 228 228 230 231 233 232 231 229
157 151 148 146 146 146 152 167 146 138 133 124 358 158 170 159 151 288 317 295 255 227 220 217 212 211 207 206 214 218 224 225 229 232 232 229 229 230 232 236 238 237 233
161 154 148 145 144 147 155 150 136 132 131 139 144 122 74 77 118 144 251 299 308 272 240 227 219 213 209 207 212 220 221 223 226 229 230 231 231 232 234 237 242 242 239
157 157 150 147 148 148 155 151 144 140 137 134 135 127 136 140 164 153 189 248 270 283 270 246 229 221 212 207 217 217 217 219 222 225 227 230 234 235 237 238 242 244 244
166 175 156 153 154 157 155 145 138 140 144 142 147 145 150 164 169 155 147 202 272 295 308 287 245 233 225 209 221 219 218 217 220 223 226 230 233 233 234 237 241 243 244
178 172 161 159 159 157 154 145 141 152 147 149 152 149 155 170 163 157 157 146 52 325 321 294 294 250 239 217 224 218 223 220 221 224 226 230 232 233 234 236 238 240 243
174 166 163 163 163 161 156 148 148 164 151 157 160 150 145 174 125 137 147 150 150 199 288 289 298 290 260 238 233 216 222 227 225 227 229 232 234 236 238 240 240 241 242
167 162 167 169 168 162 154 147 151 162 153 167 166 156 147 182 60 75 122 138 149 163 230 273 271 290 290 266 236 226 236 241 236 237 238 239 241 242 243 243 243 244 244
166 169 172 169 166 163 161 158 168 163 165 177 164 152 193 178 77 28 68 93 126 149 210 278 280 305 331 321 307 269 258 253 255 249 248 248 249 249 248 248 248 248 248
168 166 161 160 166 166 164 161 168 158 160 167 169 144 201 141 111 37 69 56 74 166 182 268 300 318 320 315 308 296 288 279 271 270 259 256 258 260 260 258 256 254 253
153 151 150 155 160 159 158 159 157 158 158 163 161 155 174 129 114 42 67 45 343 40 137 204 290 307 315 341 341 331 328 324 310 299 286 276 280 280 276 272 268 264 261
145 144 144 145 142 140 145 154 154 152 143 132 125 122 111 110 117 99 70 26 39 40 39 46 331 330 329 334 5 342 332 330 317 322 335 336 328 313 297 286 280 275 269
141 140 131 124 123 123 133 140 145 142 135 118 100 89 80 78 73 68 70 55 55 51 36 31 356 347 334 347 344 329 319 314 307 335 335 326 325 320 316 305 298 295 291
129 121 118 116 104 99 108 125 131 122 117 112 102 86 72 57 56 58 61 60 60 67 65 48 344 316 301 307 313 321 321 338 313 320 340 308 313 309 310 307 317 314 311
117 109 107 101 91 76 85 93 103 101 98 97 96 89 74 55 50 57 58 54 47 44 47 79 16 317 307 303 311 314 311 291 274 292 326 297 309 304 307 320 327 329 332
108 103 96 95 87 70 81 89 90 87 85 81 83 86 83 59 49 62 67 56 42 28 24 36 35 310 311 303 284 282 282 294 286 289 299 285 305 301 307 304 315 336 342
101 95 90 89 87 74 80 89 92 89 86 78 75 74 76 66 52 62 66 56 36 12 13 18 13 5 357 355 350 3 348 346 317 305 321 297 295 299 293 289 304 328 329
105 100 89 80 82 79 76 84 91 96 94 87 73 63 61 62 55 59 66 60 37 359 358 5 10 9 9 9 15 24 352 334 314 304 317 324 303 322 310 294 307 318 317